Regional Weather Roundup
Issued by NWS Charleston, WV

Home | Current Version | Previous Version | Graphics & Text | Print | Product List | Glossary On
Versions: 1 2 3 4 5 6 7 8 9 10 11 12 13 14 15 16 17 18 19 20 21 22 23 24 25 26 27 28 29 30 31 32 33 34 35 36 37 38 39 40 41 42 43 44 45 46 47 48 49 50
940
ASUS41 KRLX 121810
RWRRLX
West Virginia Regional Weather Roundup
National Weather Service Charleston WV
100 PM EST TUE DEC 12 2017

Note: "fair" indicates few or no clouds below 12,000 feet with no
significant weather and/or obstructions to visibility.

WVZ003-121900-
Northern Panhandle of West Virginia

CITY           SKY/WX    TMP DP  RH WIND       PRES   REMARKS
WHEELING       CLOUDY    25  14  63 NW17G24   29.71S
$$

WVZ009-121900-
Northwest West Virginia

CITY           SKY/WX    TMP DP  RH WIND       PRES   REMARKS
PARKERSBURG    PTSUNNY   30  12  47 NW20G31   29.81F
$$

WVZ006-121900-
Western West Virginia

CITY           SKY/WX    TMP DP  RH WIND       PRES   REMARKS
HUNTINGTON     CLOUDY    30  21  69 NW13G21   29.84F
$$

WVZ015-121900-
West Central West Virginia

CITY           SKY/WX    TMP DP  RH WIND       PRES   REMARKS
CHARLESTON     LGT SNOW  29  23  78 W13G22    29.79R
$$

WVZ022-031-121900-
North Central West Virginia

CITY           SKY/WX    TMP DP  RH WIND       PRES   REMARKS
CLARKSBURG     LGT SNOW  30  21  69 NW21G32   29.69R
MORGANTOWN     FLURRIES  29  22  75 NW8G20    29.67F
$$

WVZ025-035-042-045-121900-
Southern West Virginia

CITY           SKY/WX    TMP DP  RH WIND       PRES   REMARKS
BECKLEY        LGT SNOW  28  25  88 W15G22    29.66F VSB 1
LOGAN          SNOW      28  27  93 NW8G24    29.76S VSB 1/4
BLUEFIELD      LGT SNOW  28  24  85 NW21G31   29.65S VSB 1
LEWISBURG      CLOUDY    34  24  68 W14       29.61F
$$

WVZ047-121900-
Northern Mountains of West Virginia

CITY           SKY/WX    TMP DP  RH WIND       PRES   REMARKS
ELKINS         LGT SNOW  29  23  78 NW14      29.62F VSB 3/4
$$

WVZ052-121900-
Eastern Panhandle of West Virginia

CITY           SKY/WX    TMP DP  RH WIND       PRES   REMARKS
MARTINSBURG    CLOUDY    41  27  57 W17       29.55F
PETERSBURG     CLOUDY    38  26  62 NW7       29.59F
$$




USA.gov is the U.S. government's official web portal to all federal, state and local government web resources and services.